Flag Weather past 2 weeks in Durban, South Africa

Now
75 °F

Sunny.


Feels Like: 77 °F
Forecast: 65 / 69 °F
Wind: 23 mph from South

Location: King Shaka International Airport

Current Time: Oct 30, 2014 at 2:15:11 PM

Latest Report: Oct 30, 2014 at 1:00 PM


Visibility: 10 mi

Pressure: 29.86 "Hg

Humidity: 74%

Dew point: 66 °F

Location of DurbanLocation

Historic Weather in Durban — Graph

°F

Durban temperature yesterday

Maximum temperature yesterday: 79 °F (at 12:00 PM)
Minimum temperature yesterday: 63 °F (at 3:00 AM)
Average temperature yesterday: 71 °F

Past Weeks' High & Low Weather Summary

 TemperatureHumidityPressure
High79 °F (Oct 28, 12:00 PM)94% (Oct 15, 4:00 PM)30.36 "Hg (Oct 15, 4:00 PM)
Low57 °F (Oct 19, 6:00 AM)46% (Oct 17, 9:00 AM)29.71 "Hg (Oct 16, 4:00 PM)
Average67 °F75%30.07 "Hg
* Reported Oct 15 1:00 PM — Oct 30 1:00 PM, Durban, Weather by CustomWeather, © 2014

Note: Actual official high and low records may vary slightly from our data, if they occured in-between our weather recording intervals... More about our weather records

Advertising

Durban weather history for previous 24 hours

 ConditionsComfort  
Time TempWeatherWind HumidityBarometerVisibility
1:00 PM
Oct 30
75 °FSunny.23 mph74%29.86 "Hg10 mi
12:00 PM75 °FPassing clouds.18 mph69%29.86 "HgN/A
11:00 AM79 °FPassing clouds.12 mph58%29.86 "HgN/A
10:00 AM79 °FPassing clouds.8 mph61%29.83 "HgN/A
9:00 AM77 °FSunny.3 mph61%29.83 "Hg10 mi
8:00 AM73 °FPassing clouds.3 mph69%29.86 "HgN/A
7:00 AM68 °FPassing clouds.3 mph78%29.86 "HgN/A
6:00 AM66 °FSunny.2 mph83%29.83 "Hg10 mi
5:00 AM63 °FSunny.1 mph88%29.80 "Hg10 mi
4:00 AM64 °FClear.5 mph83%29.80 "Hg10 mi
3:00 AM64 °FClear.5 mph88%29.80 "Hg10 mi
2:00 AM64 °FClear.6 mph88%29.80 "Hg10 mi
1:00 AM64 °FClear.2 mph88%29.83 "Hg10 mi
12:00 AM66 °FClear.2 mph83%29.86 "Hg10 mi
11:00 PM
Oct 29
68 °FClear.7 mph83%29.86 "Hg10 mi
10:00 PM68 °FPassing clouds.7 mph83%29.86 "HgN/A
9:00 PM70 °FClear.8 mph73%29.86 "Hg10 mi
8:00 PM70 °FClear.12 mph78%29.83 "Hg10 mi
7:00 PM72 °FClear.12 mph73%29.83 "Hg10 mi
6:00 PM72 °FClear.16 mph73%29.83 "Hg10 mi
5:00 PM73 °FSunny.23 mph74%29.80 "Hg10 mi
4:00 PM73 °FSunny.22 mph74%29.80 "Hg10 mi
3:00 PM75 °FSunny.23 mph69%29.80 "Hg10 mi
2:00 PM77 °FSunny.22 mph65%29.80 "Hg10 mi
Weather by CustomWeather, © 2014

See weather overviewHow to use our weather pages